Regional Weather Roundup
Issued by NWS Jackson, KY

Home | Current Version | Previous Version | Text Only | Print | Product List | Glossary Off
Versions: 1 2 3 4 5 6 7 8 9 10 11 12 13 14 15 16 17 18 19 20 21 22 23 24 25 26 27 28 29 30 31 32 33 34 35 36 37 38 39 40 41 42 43 44 45 46 47 48 49 50

000
ASUS43 KJKL 272205
RWRJKL

EAST KENTUCKY HOURLY WEATHER ROUNDUP
NATIONAL WEATHER SERVICE JACKSON KY
500 PM EST THU NOV 27 2014

NOTE: "FAIR" INDICATES FEW OR NO CLOUDS BELOW 12,000 FEET WITH
NO SIGNIFICANT WEATHER AND/OR OBSTRUCTIONS TO VISIBILITY.

* THESE REPORTS ARE NOT UNDER NWS QUALITY CONTROL AND MAY NOT
  REPORT WEATHER SUCH AS PRECIPITATION AND FOG.

KYZ079-080-083-085-087-088-110-112-115-119-120-272300
...EASTERN KENTUCKY...

CITY           SKY/WX    TMP DP  RH WIND       PRES   REMARKS
JACKSON        CLOUDY    30  21  69 W7        30.30R WCI  23
LONDON         CLOUDY    31  25  78 W8        30.34R WCI  23
SOMERSET*      CLOUDY    32  25  74 NW5       30.39R WCI  27
MONTICELLO*    CLOUDY    32  24  72 NW9       30.41R WCI  24
HARLAN APT*    CLOUDY    30  25  80 W3        30.30S
BLACK MTN*       N/A     19  19 100 NE2         N/A
PIKEVILLE APT* CLOUDY    30  21  69 SW6       30.27R WCI  24
BIG SANDY*     LGT SNOW  31  24  75 W5        30.29R WCI  26
MOREHEAD APT*  CLOUDY    34  21  60 W8G16     30.33R WCI  27
$$

KYZ035-036-041-042-044-050-067-078-099-272300
...CENTRAL KENTUCKY...

CITY           SKY/WX    TMP DP  RH WIND       PRES   REMARKS
MT STERLING*   CLOUDY    32  23  69 NW15G21   30.34R WCI  22
FLEMING/MASON* LGT SNOW  31  24  75 W17       30.33R WCI  20
DANVILLE*      CLOUDY    32  27  80 NW9       30.37R WCI  24
RICHMOND*      MOCLDY    30  25  80 W12       30.34R WCI  21
LEXINGTON      CLOUDY    31  23  72 W9        30.34R WCI  23
FRANKFORT      CLOUDY    32  22  66 W6        30.35R WCI  26
$$

KYZ091>093-OHZ055-061-077-WVZ005-015-034-035-042-272300
...SOUTHERN OHIO/WEST VIRGINIA...

CITY           SKY/WX    TMP DP  RH WIND       PRES   REMARKS
COVINGTON      CLOUDY    31  21  66 W14       30.32R WCI  21
COLUMBUS       CLOUDY    32  21  64 W12       30.24R WCI  23
DAYTON         CLOUDY    31  22  69 NW13      30.29R WCI  21
WILMINGTON     LGT SNOW  30  23  75 W13       30.28R WCI  20
HUNTINGTON     CLOUDY    33  21  61 NW7       30.28R WCI  27
CHARLESTON     LGT SNOW  32  24  72 W7G16     30.25R WCI  26
PINEVILLE*     LGT SNOW  32  28  82 MISG      30.28R
BECKLEY        LGT SNOW  28  21  75 NW15G25   30.16R WCI  16
BLUEFIELD      FLURRIES  29  22  75 W15G25    30.14R WCI  18
$$

VAZ002-007-008-TNZ017-027-036-066-071-272300
...SOUTHWEST VIRGINIA/EAST TENNESSEE...

CITY           SKY/WX    TMP DP  RH WIND       PRES   REMARKS
WISE*          CLOUDY    28  27  93 NW9G18    30.22R FOG     WCI  20
JONESVILLE*    LGT RAIN  32  25  74 NW9       30.33R WCI  24
ABINGDON*      LGT SNOW  34  30  87 N5        30.21R WCI  30
BRISTOL        FLURRIES  35  28  75 W12       30.26R WCI  27
KNOXVILLE      MOCLDY    36  27  69 W13       30.33R WCI  27
OAK RIDGE      CLOUDY    37  26  64 W6        30.35R WCI  32
CROSSVILLE     CLOUDY    31  22  69 W10       30.33R WCI  22
NASHVILLE      PTCLDY    35  23  61 NW10      30.44R WCI  27
$$

...KEY TO REMARKS...
VSB - VISIBILITY IN MILES
WCI - WIND CHILL INDEX
HX  - HEAT INDEX

$$


USA.gov is the U.S. government's official web portal to all federal, state and local government web resources and services.